DLH108 EDDH-EDDF

Flight info

Callsign DLH108
Flight time 0h 58m
Altitude 30000
Route AMLUH2G/33 AMLUH M852 DENIX DCT RIMET/N0455F310 T157 KOKEB/N0411F230 T157 KERAX KERAX5D
Aircraft B738/M-SDE2E3FGHIRWXY/LB1

Departure

Time 2026-05-07 19:15
Airport Hamburg Helmut Schmidt Airport (EDDH)

Arrival

Time 2026-05-07 20:13
Airport Frankfurt Main Airport (EDDF)
Time Latitude Longitude Altitude Speed Heading
2026-05-07 18:57 53.63106 10.00378 71 ft 0 kts 85°
2026-05-07 19:05 53.63105 10.00366 71 ft 2 kts 85°
2026-05-07 19:05 53.63104 10.00341 71 ft 2 kts 85°
2026-05-07 19:05 53.63103 10.00316 71 ft 2 kts 85°
2026-05-07 19:05 53.63105 10.00291 71 ft 2 kts 116°
2026-05-07 19:06 53.63113 10.00270 71 ft 2 kts 141°
2026-05-07 19:06 53.63134 10.00256 71 ft 1 kts 177°
2026-05-07 19:06 53.63136 10.00256 71 ft 0 kts 176°
2026-05-07 19:10 53.63122 10.00258 71 ft 4 kts 176°
2026-05-07 19:10 53.63077 10.00249 71 ft 8 kts 197°
2026-05-07 19:10 53.63012 10.00195 71 ft 12 kts 211°
2026-05-07 19:11 53.62927 10.00106 71 ft 16 kts 212°
2026-05-07 19:11 53.62857 9.99997 71 ft 3 kts 239°
2026-05-07 19:11 53.62857 9.99996 71 ft 0 kts 239°
2026-05-07 19:12 53.62856 9.99993 71 ft 1 kts 239°
2026-05-07 19:12 53.62841 9.99950 71 ft 6 kts 241°
2026-05-07 19:12 53.62820 9.99853 71 ft 10 kts 270°
2026-05-07 19:13 53.62871 9.99744 71 ft 13 kts 328°
2026-05-07 19:13 53.62900 9.99719 71 ft 0 kts 334°
2026-05-07 19:14 53.62900 9.99718 71 ft 0 kts 334°
2026-05-07 19:14 53.63117 9.99531 71 ft 81 kts 335°
2026-05-07 19:14 53.63873 9.98879 79 ft 159 kts 336°
2026-05-07 19:15 53.64893 9.98028 828 ft 169 kts 336°
2026-05-07 19:15 53.65929 9.97134 1748 ft 169 kts 336°
2026-05-07 19:15 53.66977 9.96220 2368 ft 178 kts 336°
2026-05-07 19:15 53.68133 9.95233 2870 ft 194 kts 341°
2026-05-07 19:16 53.69497 9.94655 3359 ft 208 kts 358°
2026-05-07 19:16 53.71006 9.94570 3870 ft 223 kts
2026-05-07 19:16 53.72510 9.95038 4506 ft 224 kts 31°
2026-05-07 19:16 53.73635 9.96741 4886 ft 218 kts 63°
2026-05-07 19:17 53.74084 9.99180 4980 ft 215 kts 84°
2026-05-07 19:17 53.74245 10.01703 4978 ft 213 kts 92°
2026-05-07 19:17 53.73998 10.04134 4975 ft 214 kts 112°
2026-05-07 19:17 53.73284 10.06508 5003 ft 236 kts 120°
2026-05-07 19:18 53.72442 10.08983 4988 ft 242 kts 121°
2026-05-07 19:18 53.71598 10.11432 4981 ft 243 kts 120°
2026-05-07 19:18 53.70732 10.13967 5204 ft 251 kts 119°
2026-05-07 19:18 53.69863 10.16550 5946 ft 259 kts 120°
2026-05-07 19:19 53.68880 10.19113 6911 ft 259 kts 133°
2026-05-07 19:19 53.67444 10.20894 7762 ft 262 kts 156°
2026-05-07 19:19 53.65715 10.21845 8641 ft 264 kts 165°
2026-05-07 19:19 53.63940 10.22665 9373 ft 268 kts 166°
2026-05-07 19:20 53.62155 10.23467 9811 ft 270 kts 167°
2026-05-07 19:20 53.60315 10.24293 9969 ft 272 kts 167°
2026-05-07 19:20 53.58496 10.25109 9971 ft 270 kts 167°
2026-05-07 19:20 53.56687 10.25928 9973 ft 270 kts 166°
2026-05-07 19:21 53.54888 10.26749 9974 ft 270 kts 166°
2026-05-07 19:21 53.53064 10.27583 9975 ft 270 kts 166°
2026-05-07 19:21 53.51255 10.28411 9974 ft 270 kts 167°
2026-05-07 19:21 53.49426 10.29248 9975 ft 271 kts 166°
2026-05-07 19:22 53.47606 10.30075 9975 ft 270 kts 167°
2026-05-07 19:22 53.45785 10.30905 9975 ft 271 kts 167°
2026-05-07 19:22 53.43970 10.31731 9975 ft 270 kts 166°
2026-05-07 19:22 53.42141 10.32561 9975 ft 270 kts 167°
2026-05-07 19:23 53.40320 10.33382 9974 ft 270 kts 167°
2026-05-07 19:23 53.38519 10.34193 9975 ft 270 kts 167°
2026-05-07 19:23 53.36696 10.35012 9976 ft 270 kts 167°
2026-05-07 19:23 53.34868 10.35836 9977 ft 270 kts 167°
2026-05-07 19:24 53.33040 10.36656 9978 ft 270 kts 167°
2026-05-07 19:24 53.31217 10.37486 9975 ft 281 kts 168°
2026-05-07 19:24 53.29307 10.38340 9977 ft 286 kts 168°
2026-05-07 19:24 53.27382 10.39197 9979 ft 286 kts 168°
2026-05-07 19:25 53.25448 10.40061 9981 ft 286 kts 168°
2026-05-07 19:25 53.23543 10.40912 9982 ft 286 kts 168°
2026-05-07 19:25 53.21619 10.41770 9983 ft 286 kts 168°
2026-05-07 19:25 53.19690 10.42631 9985 ft 287 kts 168°
2026-05-07 19:26 53.17743 10.43498 10089 ft 290 kts 168°
2026-05-07 19:26 53.15765 10.44374 10446 ft 308 kts 168°
2026-05-07 19:26 53.13616 10.45106 10879 ft 324 kts 175°
2026-05-07 19:26 53.11308 10.45360 11324 ft 338 kts 183°
2026-05-07 19:27 53.08952 10.45116 12075 ft 343 kts 187°
2026-05-07 19:27 53.06567 10.44791 12985 ft 345 kts 187°
2026-05-07 19:27 53.04193 10.44463 13809 ft 349 kts 188°
2026-05-07 19:27 53.01751 10.44127 14627 ft 352 kts 188°
2026-05-07 19:28 52.99307 10.43790 15410 ft 357 kts 189°
2026-05-07 19:28 52.96854 10.43453 16161 ft 361 kts 189°
2026-05-07 19:28 52.94305 10.43103 16915 ft 366 kts 190°
2026-05-07 19:28 52.91769 10.42753 17665 ft 371 kts 191°
2026-05-07 19:29 52.89187 10.42398 18419 ft 375 kts 191°
2026-05-07 19:29 52.86560 10.42038 19166 ft 379 kts 191°
2026-05-07 19:29 52.83937 10.41680 19880 ft 383 kts 191°
2026-05-07 19:29 52.81257 10.41314 20576 ft 387 kts 192°
2026-05-07 19:30 52.78555 10.40946 21245 ft 391 kts 192°
2026-05-07 19:30 52.75846 10.40577 21883 ft 395 kts 192°
2026-05-07 19:30 52.73087 10.40203 22504 ft 400 kts 192°
2026-05-07 19:30 52.70305 10.39825 23101 ft 404 kts 193°
2026-05-07 19:31 52.67517 10.39447 23674 ft 408 kts 193°
2026-05-07 19:31 52.64685 10.39064 24231 ft 412 kts 193°
2026-05-07 19:31 52.61833 10.38679 24770 ft 415 kts 193°
2026-05-07 19:31 52.58894 10.38283 25303 ft 419 kts 193°
2026-05-07 19:32 52.56005 10.37894 25809 ft 423 kts 194°
2026-05-07 19:32 52.53032 10.37495 26303 ft 427 kts 194°
2026-05-07 19:32 52.50100 10.37101 26769 ft 431 kts 194°
2026-05-07 19:32 52.47074 10.36695 27235 ft 434 kts 194°
2026-05-07 19:33 52.44058 10.36294 27752 ft 436 kts 194°
2026-05-07 19:33 52.41035 10.35892 28226 ft 439 kts 194°
2026-05-07 19:33 52.38000 10.35487 28648 ft 443 kts 195°
2026-05-07 19:33 52.34882 10.35070 29063 ft 446 kts 195°
2026-05-07 19:34 52.31804 10.34660 29462 ft 450 kts 195°
2026-05-07 19:34 52.28686 10.34246 29853 ft 453 kts 195°
2026-05-07 19:34 52.25520 10.33823 30101 ft 460 kts 195°
2026-05-07 19:34 52.22287 10.33383 30109 ft 472 kts 195°
2026-05-07 19:35 52.15682 10.32497 30109 ft 484 kts 194°
2026-05-07 19:35 52.08957 10.31626 30109 ft 485 kts 194°
2026-05-07 19:36 52.02229 10.30754 30109 ft 485 kts 194°
2026-05-07 19:36 51.95521 10.29881 30109 ft 485 kts 194°
2026-05-07 19:37 51.88827 10.29010 30089 ft 485 kts 194°
2026-05-07 19:37 51.85489 10.28576 29848 ft 482 kts 194°
2026-05-07 19:37 51.82173 10.28152 29522 ft 474 kts 194°
2026-05-07 19:38 51.78932 10.27741 29156 ft 465 kts 194°
2026-05-07 19:38 51.75726 10.27333 28829 ft 458 kts 194°
2026-05-07 19:38 51.72590 10.26924 28508 ft 456 kts 194°
2026-05-07 19:38 51.69425 10.26511 28181 ft 454 kts 194°
2026-05-07 19:39 51.66307 10.26106 27862 ft 451 kts 194°
2026-05-07 19:39 51.63200 10.25705 27607 ft 449 kts 194°
2026-05-07 19:39 51.60110 10.25307 27358 ft 447 kts 194°
2026-05-07 19:39 51.58038 10.25041 27191 ft 446 kts 194°
2026-05-07 19:40 51.53975 10.24521 26861 ft 443 kts 194°
2026-05-07 19:40 51.50898 10.24128 26610 ft 441 kts 194°
2026-05-07 19:40 51.47847 10.23739 26360 ft 439 kts 194°
2026-05-07 19:40 51.44820 10.23354 26111 ft 437 kts 193°
2026-05-07 19:41 51.41821 10.22974 25863 ft 435 kts 193°
2026-05-07 19:41 51.38792 10.22590 25612 ft 433 kts 193°
2026-05-07 19:41 51.35836 10.22214 25365 ft 431 kts 193°
2026-05-07 19:41 51.32866 10.21918 25116 ft 432 kts 191°
2026-05-07 19:42 51.29971 10.21837 24876 ft 432 kts 189°
2026-05-07 19:42 51.26912 10.21783 24621 ft 430 kts 189°
2026-05-07 19:42 51.23945 10.21729 24373 ft 428 kts 189°
2026-05-07 19:42 51.20969 10.21671 24122 ft 426 kts 189°
2026-05-07 19:43 51.18011 10.21612 23872 ft 424 kts 189°
2026-05-07 19:43 51.15098 10.21553 23625 ft 422 kts 189°
2026-05-07 19:43 51.12147 10.21495 23373 ft 420 kts 189°
2026-05-07 19:43 51.09256 10.21443 23125 ft 418 kts 188°
2026-05-07 19:44 51.06332 10.21391 22873 ft 416 kts 188°
2026-05-07 19:44 51.03446 10.21340 22624 ft 415 kts 188°
2026-05-07 19:44 51.00579 10.21288 22375 ft 414 kts 188°
2026-05-07 19:44 50.97765 10.21236 22130 ft 413 kts 188°
2026-05-07 19:45 50.95068 10.21187 21894 ft 412 kts 188°
2026-05-07 19:45 50.92254 10.21137 21649 ft 412 kts 188°
2026-05-07 19:45 50.89375 10.21085 21397 ft 411 kts 187°
2026-05-07 19:45 50.86550 10.21034 21150 ft 410 kts 187°
2026-05-07 19:46 50.83723 10.20888 20896 ft 403 kts 193°
2026-05-07 19:46 50.81147 10.19670 20638 ft 385 kts 212°
2026-05-07 19:46 50.79016 10.17235 20387 ft 373 kts 229°
2026-05-07 19:46 50.77508 10.13975 20138 ft 365 kts 244°
2026-05-07 19:47 50.76368 10.10405 19895 ft 363 kts 246°
2026-05-07 19:47 50.75245 10.06843 19645 ft 362 kts 246°
2026-05-07 19:47 50.74119 10.03281 19394 ft 362 kts 246°
2026-05-07 19:47 50.72996 9.99750 19145 ft 361 kts 245°
2026-05-07 19:48 50.71867 9.96212 18895 ft 360 kts 245°
2026-05-07 19:48 50.70774 9.92798 18652 ft 359 kts 245°
2026-05-07 19:48 50.69640 9.89268 18400 ft 358 kts 245°
2026-05-07 19:48 50.68571 9.85941 18163 ft 357 kts 245°
2026-05-07 19:49 50.67496 9.82606 17923 ft 357 kts 245°
2026-05-07 19:49 50.66334 9.79008 17665 ft 356 kts 245°
2026-05-07 19:49 50.65231 9.75592 17418 ft 355 kts 245°
2026-05-07 19:49 50.64117 9.72211 17171 ft 355 kts 242°
2026-05-07 19:50 50.62619 9.69093 16914 ft 358 kts 229°
2026-05-07 19:50 50.60706 9.66610 16666 ft 362 kts 217°
2026-05-07 19:50 50.58493 9.64674 16419 ft 362 kts 214°
2026-05-07 19:50 50.56660 9.62118 16144 ft 352 kts 237°
2026-05-07 19:51 50.55431 9.58796 15907 ft 350 kts 243°
2026-05-07 19:51 50.54248 9.55456 15657 ft 350 kts 242°
2026-05-07 19:51 50.53009 9.52215 15410 ft 350 kts 240°
2026-05-07 19:51 50.51692 9.48994 15159 ft 349 kts 238°
2026-05-07 19:52 50.50342 9.45831 14909 ft 349 kts 238°
2026-05-07 19:52 50.48958 9.42671 14656 ft 348 kts 237°
2026-05-07 19:52 50.47585 9.39581 14408 ft 348 kts 237°
2026-05-07 19:52 50.46178 9.36440 14155 ft 347 kts 237°
2026-05-07 19:53 50.44806 9.33386 13910 ft 347 kts 236°
2026-05-07 19:53 50.43414 9.30298 13660 ft 347 kts 235°
2026-05-07 19:53 50.41954 9.27360 13412 ft 347 kts 231°
2026-05-07 19:53 50.40255 9.24612 13158 ft 348 kts 224°
2026-05-07 19:54 50.38372 9.22238 12908 ft 349 kts 217°
2026-05-07 19:54 50.36351 9.20174 12661 ft 349 kts 214°
2026-05-07 19:54 50.34379 9.18263 12422 ft 348 kts 213°
2026-05-07 19:54 50.32283 9.16252 12167 ft 348 kts 213°
2026-05-07 19:55 50.30236 9.14273 11918 ft 346 kts 215°
2026-05-07 19:55 50.28503 9.12100 11680 ft 344 kts 226°
2026-05-07 19:55 50.26936 9.09141 11419 ft 341 kts 238°
2026-05-07 19:55 50.25835 9.05856 11166 ft 340 kts 249°
2026-05-07 19:56 50.25031 9.02545 10929 ft 339 kts 251°
2026-05-07 19:56 50.24246 8.99114 10681 ft 339 kts 252°
2026-05-07 19:56 50.23458 8.95666 10432 ft 338 kts 252°
2026-05-07 19:56 50.22687 8.92317 10189 ft 338 kts 252°
2026-05-07 19:57 50.22012 8.89408 9990 ft 338 kts 252°
2026-05-07 19:57 50.21110 8.85544 9845 ft 338 kts 252°
2026-05-07 19:57 50.20406 8.82540 9736 ft 338 kts 252°
2026-05-07 19:57 50.19598 8.79105 9612 ft 338 kts 252°
2026-05-07 19:58 50.18824 8.75821 9493 ft 338 kts 252°
2026-05-07 19:58 50.18011 8.72384 9368 ft 338 kts 252°
2026-05-07 19:58 50.17194 8.68938 9243 ft 338 kts 252°
2026-05-07 19:58 50.16370 8.65466 9117 ft 338 kts 252°
2026-05-07 19:59 50.15554 8.62039 8993 ft 337 kts 252°
2026-05-07 19:59 50.14719 8.58532 8866 ft 337 kts 252°
2026-05-07 19:59 50.13899 8.55101 8741 ft 337 kts 252°
2026-05-07 19:59 50.13080 8.51677 8616 ft 337 kts 252°
2026-05-07 20:00 50.12270 8.48297 8493 ft 337 kts 252°
2026-05-07 20:00 50.11442 8.44841 8368 ft 336 kts 252°
2026-05-07 20:00 50.10627 8.41446 8244 ft 336 kts 252°
2026-05-07 20:00 50.09802 8.38026 8119 ft 336 kts 252°
2026-05-07 20:01 50.08990 8.34666 7997 ft 336 kts 251°
2026-05-07 20:01 50.08200 8.31406 7878 ft 336 kts 251°
2026-05-07 20:01 50.07370 8.27987 7752 ft 336 kts 251°
2026-05-07 20:01 50.06549 8.24611 7628 ft 336 kts 251°
2026-05-07 20:02 50.05722 8.21221 7503 ft 336 kts 251°
2026-05-07 20:02 50.04888 8.17805 7377 ft 335 kts 251°
2026-05-07 20:02 50.04055 8.14397 7252 ft 335 kts 251°
2026-05-07 20:02 50.03242 8.11077 7029 ft 318 kts 251°
2026-05-07 20:03 50.02489 8.08017 6878 ft 290 kts 252°
2026-05-07 20:03 50.01794 8.05184 6742 ft 267 kts 252°
2026-05-07 20:03 50.01147 8.02540 6615 ft 259 kts 252°
2026-05-07 20:03 50.00514 7.99934 6491 ft 260 kts 252°
2026-05-07 20:04 49.99871 7.97295 6366 ft 260 kts 252°
2026-05-07 20:04 49.99225 7.94657 6240 ft 260 kts 252°
2026-05-07 20:04 49.98534 7.92071 6111 ft 262 kts 242°
2026-05-07 20:04 49.97184 7.90104 6000 ft 277 kts 210°
2026-05-07 20:05 49.95371 7.88984 5880 ft 280 kts 194°
2026-05-07 20:05 49.93448 7.89003 5742 ft 282 kts 165°
2026-05-07 20:05 49.91747 7.90437 5606 ft 280 kts 135°
2026-05-07 20:05 49.90709 7.92959 5454 ft 275 kts 104°
2026-05-07 20:06 49.90588 7.95876 5254 ft 269 kts 76°
2026-05-07 20:06 49.91164 7.98606 5055 ft 265 kts 65°
2026-05-07 20:06 49.91849 8.01192 4995 ft 256 kts 65°
2026-05-07 20:06 49.92506 8.03696 4963 ft 238 kts 65°
2026-05-07 20:07 49.93087 8.05981 4962 ft 216 kts 65°
2026-05-07 20:07 49.93612 8.08084 4990 ft 211 kts 64°
2026-05-07 20:07 49.94198 8.10215 5009 ft 220 kts 63°
2026-05-07 20:07 49.94811 8.12426 4999 ft 221 kts 64°
2026-05-07 20:08 49.95387 8.14629 4984 ft 222 kts 65°
2026-05-07 20:08 49.95947 8.16887 4740 ft 223 kts 66°
2026-05-07 20:08 49.96480 8.19122 4447 ft 219 kts 67°
2026-05-07 20:08 49.96989 8.21295 4102 ft 215 kts 67°
2026-05-07 20:09 49.97368 8.22924 3877 ft 209 kts 67°
2026-05-07 20:09 49.97850 8.24995 3612 ft 199 kts 67°
2026-05-07 20:09 49.98316 8.26986 3361 ft 190 kts 67°
2026-05-07 20:10 49.99177 8.30649 2880 ft 173 kts 67°
2026-05-07 20:10 49.99585 8.32375 2648 ft 169 kts 67°
2026-05-07 20:10 49.99992 8.34095 2429 ft 168 kts 67°
2026-05-07 20:10 50.00399 8.35809 2209 ft 168 kts 68°
2026-05-07 20:11 50.00801 8.37506 1990 ft 167 kts 68°
2026-05-07 20:11 50.01194 8.39162 1759 ft 158 kts 68°
2026-05-07 20:11 50.01562 8.40711 1545 ft 146 kts 68°
2026-05-07 20:11 50.01901 8.42138 1356 ft 136 kts 68°
2026-05-07 20:12 50.02230 8.43517 1189 ft 134 kts 68°
2026-05-07 20:12 50.02548 8.44871 1016 ft 134 kts 69°
2026-05-07 20:12 50.02860 8.46252 807 ft 134 kts 69°
2026-05-07 20:12 50.03182 8.47607 642 ft 133 kts 68°
2026-05-07 20:13 50.03517 8.48945 497 ft 133 kts 68°
2026-05-07 20:13 50.03847 8.50306 352 ft 130 kts 68°
2026-05-07 20:13 50.04065 8.51207 367 ft 79 kts 71°
2026-05-07 20:13 50.04187 8.51737 366 ft 44 kts 70°
2026-05-07 20:14 50.04227 8.52194 366 ft 42 kts 97°
2026-05-07 20:14 50.04196 8.52527 367 ft 28 kts 96°
2026-05-07 20:14 50.04228 8.52809 365 ft 25 kts 70°
2026-05-07 20:14 50.04290 8.53068 361 ft 25 kts 69°
2026-05-07 20:15 50.04354 8.53331 359 ft 25 kts 69°
2026-05-07 20:15 50.04398 8.53598 360 ft 25 kts 82°
2026-05-07 20:15 50.04417 8.53886 361 ft 27 kts 83°
2026-05-07 20:15 50.04436 8.54183 362 ft 28 kts 85°
2026-05-07 20:16 50.04445 8.54500 359 ft 30 kts 100°
2026-05-07 20:16 50.04322 8.54753 360 ft 29 kts 151°
2026-05-07 20:16 50.04131 8.54872 358 ft 29 kts 159°
2026-05-07 20:16 50.03937 8.54984 354 ft 29 kts 158°
2026-05-07 20:17 50.03849 8.55111 355 ft 13 kts 76°
2026-05-07 20:17 50.03881 8.55254 356 ft 14 kts 69°
2026-05-07 20:17 50.03920 8.55417 357 ft 16 kts 69°
2026-05-07 20:17 50.03963 8.55600 357 ft 19 kts 69°
2026-05-07 20:18 50.04011 8.55800 356 ft 21 kts 69°
2026-05-07 20:18 50.04062 8.56014 360 ft 20 kts 69°
2026-05-07 20:18 50.04111 8.56217 363 ft 17 kts 54°
2026-05-07 20:18 50.04204 8.56253 366 ft 14 kts 348°
2026-05-07 20:19 50.04282 8.56188 368 ft 11 kts 294°
2026-05-07 20:19 50.04324 8.56074 368 ft 13 kts 320°
2026-05-07 20:19 50.04396 8.56016 370 ft 11 kts 317°
2026-05-07 20:19 50.04464 8.55954 371 ft 12 kts 358°
2026-05-07 20:20 50.04546 8.55992 372 ft 13 kts 48°
2026-05-07 20:20 50.04592 8.56138 372 ft 16 kts 69°
2026-05-07 20:20 50.04634 8.56285 372 ft 12 kts 45°
2026-05-07 20:20 50.04699 8.56291 372 ft 7 kts 342°
2026-05-07 20:21 50.04727 8.56274 372 ft 0 kts 340°